B21HE ZJSY-ZSSS

Flight info

Callsign B21HE
Flight time 4h 3m
Altitude 9800
Route AL LINGSHUI DBA WCF WUQ YANGJIANG UJ ZUH SHK GLN HUIYANG LUFENG SWA XLN FQG LJG XIAPU DST TAIZHOU XIANGSHAN AND JTN
Aircraft P180/L-SBDFGM3RWXYZ/LB1

Departure

Time 2026-04-27 13:11
Airport Sanya Phoenix International Airport (ZJSY)

Arrival

Time 2026-04-27 17:15
Airport Shanghai Hongqiao International Airport (ZSSS)
Time Latitude Longitude Altitude Speed Heading
2026-04-27 13:04 18.30531 109.40505 78 ft 0 kts 351°
2026-04-27 13:05 18.30532 109.40505 73 ft 1 kts 351°
2026-04-27 13:06 18.30543 109.40503 77 ft 3 kts 351°
2026-04-27 13:06 18.30559 109.40496 77 ft 4 kts 322°
2026-04-27 13:06 18.30570 109.40463 78 ft 7 kts 268°
2026-04-27 13:06 18.30564 109.40419 78 ft 8 kts 262°
2026-04-27 13:07 18.30556 109.40350 78 ft 10 kts 262°
2026-04-27 13:07 18.30545 109.40273 70 ft 8 kts 261°
2026-04-27 13:07 18.30507 109.40245 78 ft 7 kts 173°
2026-04-27 13:07 18.30448 109.40253 75 ft 9 kts 172°
2026-04-27 13:08 18.30405 109.40210 78 ft 11 kts 260°
2026-04-27 13:08 18.30394 109.40126 78 ft 13 kts 262°
2026-04-27 13:08 18.30381 109.40030 78 ft 14 kts 262°
2026-04-27 13:08 18.30368 109.39921 78 ft 16 kts 263°
2026-04-27 13:09 18.30353 109.39803 78 ft 17 kts 262°
2026-04-27 13:09 18.30336 109.39676 78 ft 18 kts 262°
2026-04-27 13:09 18.30281 109.39614 78 ft 10 kts 163°
2026-04-27 13:09 18.30196 109.39631 79 ft 14 kts 172°
2026-04-27 13:10 18.30100 109.39643 80 ft 13 kts 173°
2026-04-27 13:10 18.30088 109.39677 80 ft 3 kts 75°
2026-04-27 13:10 18.30089 109.39681 80 ft 2 kts 80°
2026-04-27 13:10 18.30130 109.39999 81 ft 100 kts 82°
2026-04-27 13:11 18.30260 109.40996 230 ft 157 kts 83°
2026-04-27 13:11 18.30385 109.42089 669 ft 148 kts 85°
2026-04-27 13:11 18.30509 109.43153 1126 ft 146 kts 86°
2026-04-27 13:11 18.30677 109.44187 1635 ft 142 kts 82°
2026-04-27 13:12 18.30849 109.45231 2079 ft 151 kts 89°
2026-04-27 13:12 18.30986 109.46384 2570 ft 166 kts 87°
2026-04-27 13:12 18.31118 109.47617 3196 ft 170 kts 89°
2026-04-27 13:12 18.31257 109.48870 3797 ft 176 kts 88°
2026-04-27 13:13 18.31389 109.50165 4426 ft 180 kts 88°
2026-04-27 13:13 18.31513 109.51498 5043 ft 185 kts 88°
2026-04-27 13:13 18.31630 109.52852 5654 ft 188 kts 88°
2026-04-27 13:13 18.31734 109.54228 6261 ft 190 kts 88°
2026-04-27 13:14 18.31830 109.55628 6823 ft 193 kts 88°
2026-04-27 13:14 18.31920 109.57044 7385 ft 195 kts 88°
2026-04-27 13:14 18.31999 109.58473 7948 ft 197 kts 88°
2026-04-27 13:14 18.32067 109.59784 8448 ft 198 kts 88°
2026-04-27 13:15 18.32134 109.61244 9000 ft 201 kts 88°
2026-04-27 13:15 18.32197 109.62717 9533 ft 202 kts 88°
2026-04-27 13:15 18.32255 109.64224 9863 ft 216 kts 88°
2026-04-27 13:15 18.32310 109.65894 9878 ft 240 kts 88°
2026-04-27 13:16 18.32368 109.67718 9877 ft 258 kts 88°
2026-04-27 13:16 18.32643 109.69613 9869 ft 269 kts 69°
2026-04-27 13:16 18.33498 109.71399 9876 ft 278 kts 60°
2026-04-27 13:16 18.34458 109.73195 9877 ft 284 kts 59°
2026-04-27 13:17 18.35446 109.75016 9878 ft 289 kts 59°
2026-04-27 13:17 18.36453 109.76857 9873 ft 292 kts 59°
2026-04-27 13:17 18.37469 109.78713 9875 ft 294 kts 59°
2026-04-27 13:17 18.38489 109.80570 9870 ft 293 kts 59°
2026-04-27 13:18 18.39507 109.82420 9871 ft 292 kts 59°
2026-04-27 13:18 18.40518 109.84272 9871 ft 291 kts 59°
2026-04-27 13:18 18.41516 109.86096 9870 ft 291 kts 59°
2026-04-27 13:18 18.42198 109.87342 9867 ft 291 kts 59°
2026-04-27 13:19 18.43534 109.89789 9868 ft 291 kts 59°
2026-04-27 13:19 18.44543 109.91634 9876 ft 291 kts 59°
2026-04-27 13:19 18.45554 109.93479 9872 ft 291 kts 58°
2026-04-27 13:19 18.46241 109.94721 9870 ft 291 kts 59°
2026-04-27 13:20 18.47577 109.97166 9869 ft 290 kts 59°
2026-04-27 13:20 18.48257 109.98408 9870 ft 290 kts 59°
2026-04-27 13:20 18.49267 110.00250 9871 ft 290 kts 59°
2026-04-27 13:20 18.50275 110.02095 9871 ft 290 kts 59°
2026-04-27 13:21 18.51282 110.03935 9869 ft 290 kts 59°
2026-04-27 13:21 18.52290 110.05777 9871 ft 290 kts 58°
2026-04-27 13:21 18.53448 110.07503 9866 ft 289 kts 49°
2026-04-27 13:21 18.54769 110.09110 9866 ft 289 kts 47°
2026-04-27 13:22 18.56095 110.10698 9869 ft 289 kts 47°
2026-04-27 13:22 18.57429 110.12284 9870 ft 289 kts 47°
2026-04-27 13:22 18.58763 110.13863 9870 ft 288 kts 47°
2026-04-27 13:22 18.60100 110.15445 9868 ft 289 kts 47°
2026-04-27 13:23 18.61434 110.17021 9865 ft 288 kts 47°
2026-04-27 13:23 18.62750 110.18580 9869 ft 288 kts 47°
2026-04-27 13:23 18.64087 110.20153 9869 ft 288 kts 47°
2026-04-27 13:23 18.65428 110.21733 9866 ft 289 kts 47°
2026-04-27 13:24 18.66901 110.23159 9866 ft 287 kts 34°
2026-04-27 13:24 18.68613 110.24231 9866 ft 286 kts 23°
2026-04-27 13:24 18.70496 110.24841 9861 ft 283 kts
2026-04-27 13:24 18.72440 110.25074 9859 ft 283 kts
2026-04-27 13:25 18.74315 110.25727 9857 ft 285 kts 25°
2026-04-27 13:25 18.75992 110.26857 9859 ft 286 kts 33°
2026-04-27 13:25 18.77733 110.27854 9856 ft 284 kts 20°
2026-04-27 13:25 18.79595 110.28558 9857 ft 284 kts 18°
2026-04-27 13:26 18.81429 110.29336 9861 ft 284 kts 21°
2026-04-27 13:26 18.83254 110.30158 9792 ft 287 kts 21°
2026-04-27 13:26 18.85110 110.30941 9755 ft 287 kts 19°
2026-04-27 13:26 18.86971 110.31712 9751 ft 287 kts 20°
2026-04-27 13:27 18.88815 110.32500 9749 ft 286 kts 20°
2026-04-27 13:27 18.90655 110.33296 9761 ft 286 kts 20°
2026-04-27 13:27 18.92495 110.34089 9746 ft 285 kts 20°
2026-04-27 13:27 18.94334 110.34893 9746 ft 286 kts 21°
2026-04-27 13:28 18.96176 110.35703 9744 ft 288 kts 21°
2026-04-27 13:28 18.98026 110.36516 9749 ft 288 kts 21°
2026-04-27 13:28 18.99880 110.37329 9752 ft 289 kts 21°
2026-04-27 13:28 19.01735 110.38144 9750 ft 289 kts 21°
2026-04-27 13:29 19.03590 110.38959 9756 ft 289 kts 21°
2026-04-27 13:29 19.05447 110.39775 9749 ft 289 kts 21°
2026-04-27 13:29 19.07307 110.40591 9754 ft 289 kts 21°
2026-04-27 13:29 19.09166 110.41409 9754 ft 289 kts 21°
2026-04-27 13:30 19.11024 110.42224 9756 ft 289 kts 21°
2026-04-27 13:30 19.12881 110.43040 9747 ft 289 kts 21°
2026-04-27 13:30 19.14739 110.43856 9746 ft 289 kts 21°
2026-04-27 13:30 19.16599 110.44673 9752 ft 289 kts 21°
2026-04-27 13:31 19.18424 110.45563 9752 ft 290 kts 28°
2026-04-27 13:31 19.20121 110.46723 9746 ft 290 kts 31°
2026-04-27 13:31 19.21906 110.47697 9739 ft 289 kts 21°
2026-04-27 13:31 19.23757 110.48509 9740 ft 289 kts 22°
2026-04-27 13:32 19.25571 110.49429 9742 ft 289 kts 25°
2026-04-27 13:32 19.27378 110.50367 9749 ft 289 kts 23°
2026-04-27 13:32 19.29209 110.51242 9743 ft 289 kts 22°
2026-04-27 13:32 19.31046 110.52119 9744 ft 290 kts 23°
2026-04-27 13:33 19.32867 110.53031 9744 ft 289 kts 24°
2026-04-27 13:33 19.34690 110.53928 9744 ft 289 kts 23°
2026-04-27 13:33 19.36517 110.54820 9744 ft 289 kts 23°
2026-04-27 13:33 19.38335 110.55722 9748 ft 289 kts 23°
2026-04-27 13:34 19.40160 110.56616 9742 ft 289 kts 23°
2026-04-27 13:34 19.41983 110.57515 9743 ft 289 kts 23°
2026-04-27 13:34 19.43797 110.58415 9743 ft 288 kts 23°
2026-04-27 13:34 19.45614 110.59324 9741 ft 288 kts 24°
2026-04-27 13:35 19.47423 110.60239 9740 ft 288 kts 24°
2026-04-27 13:35 19.49228 110.61158 9741 ft 288 kts 24°
2026-04-27 13:35 19.51034 110.62087 9741 ft 288 kts 24°
2026-04-27 13:35 19.52837 110.63013 9740 ft 288 kts 23°
2026-04-27 13:36 19.54687 110.63813 9742 ft 287 kts 19°
2026-04-27 13:36 19.56536 110.64620 9736 ft 288 kts 23°
2026-04-27 13:36 19.58334 110.65566 9738 ft 288 kts 25°
2026-04-27 13:36 19.60141 110.66492 9746 ft 288 kts 23°
2026-04-27 13:37 19.61966 110.67378 9739 ft 289 kts 23°
2026-04-27 13:37 19.63785 110.68283 9745 ft 289 kts 24°
2026-04-27 13:37 19.65606 110.69185 9739 ft 289 kts 23°
2026-04-27 13:37 19.67427 110.70088 9739 ft 289 kts 24°
2026-04-27 13:38 19.69250 110.70994 9740 ft 289 kts 23°
2026-04-27 13:38 19.71070 110.71902 9739 ft 289 kts 25°
2026-04-27 13:38 19.72911 110.72748 9736 ft 288 kts 15°
2026-04-27 13:38 19.74877 110.73093 9734 ft 286 kts
2026-04-27 13:39 19.76831 110.73029 9735 ft 284 kts 354°
2026-04-27 13:39 19.78836 110.72951 9733 ft 285 kts 357°
2026-04-27 13:39 19.80816 110.72949 9738 ft 285 kts 358°
2026-04-27 13:39 19.82801 110.72915 9731 ft 285 kts 356°
2026-04-27 13:40 19.84753 110.72862 9734 ft 285 kts 357°
2026-04-27 13:40 19.86762 110.72830 9741 ft 285 kts 357°
2026-04-27 13:40 19.88717 110.72802 9743 ft 285 kts 357°
2026-04-27 13:40 19.90701 110.72762 9746 ft 285 kts 356°
2026-04-27 13:41 19.92688 110.72717 9746 ft 286 kts 356°
2026-04-27 13:41 19.94677 110.72687 9752 ft 286 kts 357°
2026-04-27 13:41 19.96665 110.72654 9744 ft 286 kts 356°
2026-04-27 13:41 19.98656 110.72611 9746 ft 286 kts 356°
2026-04-27 13:42 20.00652 110.72574 9733 ft 286 kts 356°
2026-04-27 13:42 20.02644 110.72544 9731 ft 287 kts 357°
2026-04-27 13:42 20.04638 110.72505 9730 ft 287 kts 356°
2026-04-27 13:42 20.06632 110.72463 9728 ft 287 kts 356°
2026-04-27 13:43 20.08628 110.72433 9728 ft 286 kts 357°
2026-04-27 13:43 20.10621 110.72398 9728 ft 286 kts 356°
2026-04-27 13:43 20.12612 110.72353 9728 ft 286 kts 356°
2026-04-27 13:43 20.14603 110.72324 9733 ft 286 kts 357°
2026-04-27 13:44 20.16599 110.72298 9734 ft 287 kts 356°
2026-04-27 13:44 20.18594 110.72253 9735 ft 287 kts 356°
2026-04-27 13:44 20.20595 110.72211 9735 ft 288 kts 356°
2026-04-27 13:44 20.22598 110.72179 9735 ft 288 kts 356°
2026-04-27 13:45 20.24603 110.72143 9738 ft 288 kts 356°
2026-04-27 13:45 20.26610 110.72102 9739 ft 288 kts 356°
2026-04-27 13:45 20.28619 110.72066 9739 ft 288 kts 356°
2026-04-27 13:45 20.30630 110.72030 9740 ft 289 kts 356°
2026-04-27 13:46 20.32638 110.71992 9739 ft 289 kts 356°
2026-04-27 13:46 20.34651 110.71953 9739 ft 289 kts 356°
2026-04-27 13:46 20.36662 110.71921 9740 ft 289 kts 357°
2026-04-27 13:46 20.38677 110.71884 9740 ft 289 kts 356°
2026-04-27 13:47 20.40686 110.71843 9742 ft 289 kts 356°
2026-04-27 13:47 20.42699 110.71805 9743 ft 289 kts 356°
2026-04-27 13:47 20.44713 110.71770 9743 ft 289 kts 356°
2026-04-27 13:47 20.46724 110.71735 9743 ft 290 kts 356°
2026-04-27 13:48 20.48713 110.71695 9746 ft 290 kts 356°
2026-04-27 13:48 20.50727 110.71658 9746 ft 290 kts 357°
2026-04-27 13:48 20.52741 110.71622 9750 ft 289 kts 356°
2026-04-27 13:48 20.54748 110.71586 9750 ft 289 kts 356°
2026-04-27 13:49 20.56758 110.71548 9753 ft 289 kts 356°
2026-04-27 13:49 20.58769 110.71509 9753 ft 289 kts 356°
2026-04-27 13:49 20.60778 110.71473 9752 ft 289 kts 356°
2026-04-27 13:49 20.62790 110.71437 9751 ft 289 kts 356°
2026-04-27 13:50 20.64798 110.71399 9752 ft 289 kts 356°
2026-04-27 13:50 20.66803 110.71360 9753 ft 288 kts 356°
2026-04-27 13:50 20.68804 110.71326 9753 ft 288 kts 356°
2026-04-27 13:50 20.70810 110.71288 9754 ft 288 kts 356°
2026-04-27 13:51 20.72809 110.71247 9754 ft 288 kts 356°
2026-04-27 13:51 20.74819 110.71213 9753 ft 289 kts 356°
2026-04-27 13:51 20.76827 110.71174 9757 ft 289 kts 356°
2026-04-27 13:51 20.78835 110.71138 9756 ft 289 kts 356°
2026-04-27 13:52 20.80845 110.71101 9759 ft 289 kts 356°
2026-04-27 13:52 20.82852 110.71065 9759 ft 288 kts 356°
2026-04-27 13:52 20.84860 110.71025 9759 ft 288 kts 356°
2026-04-27 13:52 20.86867 110.70986 9759 ft 289 kts 356°
2026-04-27 13:53 20.90888 110.70916 9758 ft 289 kts 356°
2026-04-27 13:53 20.92901 110.70874 9759 ft 289 kts 356°
2026-04-27 13:53 20.94917 110.70839 9759 ft 290 kts 356°
2026-04-27 13:54 20.96933 110.70806 9757 ft 290 kts 356°
2026-04-27 13:54 20.98950 110.70765 9756 ft 290 kts 356°
2026-04-27 13:54 21.00963 110.70724 9756 ft 290 kts 356°
2026-04-27 13:54 21.02983 110.70689 9756 ft 290 kts 356°
2026-04-27 13:55 21.04994 110.70652 9765 ft 290 kts 356°
2026-04-27 13:55 21.07008 110.70613 9762 ft 290 kts 356°
2026-04-27 13:55 21.09025 110.70578 9767 ft 290 kts 356°
2026-04-27 13:55 21.11039 110.70541 9762 ft 290 kts 356°
2026-04-27 13:56 21.13055 110.70503 9761 ft 289 kts 356°
2026-04-27 13:56 21.15067 110.70462 9767 ft 289 kts 356°
2026-04-27 13:56 21.17078 110.70426 9767 ft 290 kts 356°
2026-04-27 13:56 21.19096 110.70392 9767 ft 290 kts 356°
2026-04-27 13:57 21.21112 110.70351 9767 ft 290 kts 356°
2026-04-27 13:57 21.23126 110.70312 9764 ft 290 kts 356°
2026-04-27 13:57 21.25145 110.70279 9767 ft 290 kts 356°
2026-04-27 13:57 21.27162 110.70237 9767 ft 290 kts 356°
2026-04-27 13:58 21.29179 110.70199 9768 ft 290 kts 356°
2026-04-27 13:58 21.31200 110.70160 9768 ft 290 kts 356°
2026-04-27 13:58 21.33218 110.70115 9768 ft 290 kts 356°
2026-04-27 13:58 21.35236 110.70073 9767 ft 290 kts 356°
2026-04-27 13:59 21.37252 110.70233 9763 ft 292 kts
2026-04-27 13:59 21.39172 110.70952 9759 ft 295 kts 25°
2026-04-27 13:59 21.40878 110.72182 9756 ft 297 kts 40°
2026-04-27 13:59 21.42252 110.73831 9755 ft 297 kts 53°
2026-04-27 14:00 21.43404 110.75668 9762 ft 297 kts 56°
2026-04-27 14:00 21.44534 110.77527 9773 ft 297 kts 57°
2026-04-27 14:00 21.45649 110.79392 9774 ft 297 kts 57°
2026-04-27 14:00 21.46761 110.81257 9772 ft 297 kts 57°
2026-04-27 14:01 21.47872 110.83128 9772 ft 297 kts 57°
2026-04-27 14:01 21.48981 110.84993 9772 ft 297 kts 57°
2026-04-27 14:01 21.50092 110.86865 9775 ft 297 kts 57°
2026-04-27 14:01 21.51200 110.88733 9778 ft 297 kts 57°
2026-04-27 14:02 21.52269 110.90630 9777 ft 297 kts 62°
2026-04-27 14:02 21.53008 110.92695 9770 ft 297 kts 77°
2026-04-27 14:02 21.53236 110.94140 9768 ft 296 kts 84°
2026-04-27 14:02 21.53471 110.96335 9770 ft 296 kts 84°
2026-04-27 14:03 21.53775 110.98523 9770 ft 296 kts 80°
2026-04-27 14:03 21.54207 111.00687 9773 ft 297 kts 78°
2026-04-27 14:03 21.54613 111.02856 9773 ft 296 kts 81°
2026-04-27 14:03 21.54954 111.05036 9773 ft 296 kts 82°
2026-04-27 14:04 21.55317 111.07217 9773 ft 296 kts 80°
2026-04-27 14:04 21.55716 111.09387 9773 ft 296 kts 80°
2026-04-27 14:04 21.56097 111.11565 9773 ft 296 kts 81°
2026-04-27 14:04 21.56456 111.13743 9774 ft 296 kts 81°
2026-04-27 14:05 21.56830 111.15917 9765 ft 296 kts 80°
2026-04-27 14:05 21.57214 111.18085 9773 ft 295 kts 81°
2026-04-27 14:05 21.57584 111.20254 9773 ft 295 kts 81°
2026-04-27 14:05 21.57952 111.22423 9773 ft 296 kts 81°
2026-04-27 14:06 21.58329 111.24596 9777 ft 296 kts 80°
2026-04-27 14:06 21.58703 111.26770 9775 ft 295 kts 81°
2026-04-27 14:06 21.59071 111.28940 9775 ft 295 kts 81°
2026-04-27 14:06 21.59444 111.31113 9775 ft 296 kts 81°
2026-04-27 14:07 21.59819 111.33279 9773 ft 296 kts 81°
2026-04-27 14:07 21.60187 111.35456 9775 ft 296 kts 81°
2026-04-27 14:07 21.60558 111.37628 9773 ft 296 kts 81°
2026-04-27 14:07 21.60931 111.39802 9774 ft 296 kts 81°
2026-04-27 14:08 21.61303 111.41977 9773 ft 296 kts 81°
2026-04-27 14:08 21.61669 111.44149 9773 ft 296 kts 81°
2026-04-27 14:08 21.62042 111.46323 9773 ft 296 kts 81°
2026-04-27 14:08 21.62414 111.48495 9773 ft 296 kts 81°
2026-04-27 14:09 21.62780 111.50669 9779 ft 296 kts 81°
2026-04-27 14:09 21.63150 111.52843 9776 ft 296 kts 81°
2026-04-27 14:09 21.63521 111.55014 9778 ft 295 kts 81°
2026-04-27 14:09 21.63886 111.57187 9776 ft 295 kts 81°
2026-04-27 14:10 21.64254 111.59358 9783 ft 295 kts 81°
2026-04-27 14:10 21.64626 111.61526 9783 ft 295 kts 81°
2026-04-27 14:10 21.64989 111.63698 9784 ft 296 kts 81°
2026-04-27 14:10 21.65356 111.65880 9782 ft 297 kts 81°
2026-04-27 14:11 21.65728 111.68057 9789 ft 296 kts 81°
2026-04-27 14:11 21.66106 111.70239 9789 ft 296 kts 81°
2026-04-27 14:11 21.66456 111.72413 9790 ft 296 kts 82°
2026-04-27 14:11 21.66819 111.74591 9789 ft 296 kts 81°
2026-04-27 14:12 21.67201 111.76765 9786 ft 296 kts 81°
2026-04-27 14:12 21.67567 111.78941 9789 ft 296 kts 82°
2026-04-27 14:12 21.67922 111.81122 9780 ft 296 kts 82°
2026-04-27 14:12 21.68292 111.83300 9781 ft 296 kts 81°
2026-04-27 14:13 21.68658 111.85448 9781 ft 296 kts 81°
2026-04-27 14:13 21.69023 111.87652 9781 ft 296 kts 82°
2026-04-27 14:13 21.69380 111.89800 9781 ft 296 kts 81°
2026-04-27 14:13 21.69750 111.91975 9781 ft 296 kts 81°
2026-04-27 14:14 21.70117 111.94179 9781 ft 296 kts 82°
2026-04-27 14:14 21.70477 111.96356 9781 ft 296 kts 81°
2026-04-27 14:14 21.70839 111.98501 9784 ft 296 kts 81°
2026-04-27 14:14 21.71210 112.00706 9784 ft 296 kts 81°
2026-04-27 14:15 21.71562 112.02857 9784 ft 296 kts 82°
2026-04-27 14:15 21.71925 112.05032 9784 ft 296 kts 81°
2026-04-27 14:15 21.72291 112.07206 9784 ft 295 kts 81°
2026-04-27 14:15 21.72649 112.09377 9784 ft 295 kts 82°
2026-04-27 14:16 21.73010 112.11556 9784 ft 296 kts 81°
2026-04-27 14:16 21.73376 112.13727 9777 ft 295 kts 81°
2026-04-27 14:16 21.73734 112.15906 9778 ft 295 kts 82°
2026-04-27 14:16 21.74091 112.18076 9778 ft 295 kts 81°
2026-04-27 14:17 21.74455 112.20247 9779 ft 295 kts 81°
2026-04-27 14:17 21.74814 112.22422 9779 ft 295 kts 82°
2026-04-27 14:17 21.75171 112.24599 9779 ft 295 kts 82°
2026-04-27 14:17 21.75531 112.26772 9779 ft 296 kts 81°
2026-04-27 14:18 21.75892 112.28951 9778 ft 296 kts 82°
2026-04-27 14:18 21.76250 112.31132 9778 ft 296 kts 82°
2026-04-27 14:18 21.76610 112.33312 9777 ft 296 kts 82°
2026-04-27 14:18 21.76969 112.35497 9776 ft 296 kts 81°
2026-04-27 14:19 21.77329 112.37674 9777 ft 295 kts 82°
2026-04-27 14:19 21.77683 112.39848 9775 ft 295 kts 82°
2026-04-27 14:19 21.78042 112.42020 9779 ft 294 kts 81°
2026-04-27 14:19 21.78399 112.44185 9776 ft 294 kts 82°
2026-04-27 14:20 21.78750 112.46355 9775 ft 294 kts 82°
2026-04-27 14:20 21.79107 112.48524 9773 ft 294 kts 82°
2026-04-27 14:20 21.79465 112.50692 9773 ft 294 kts 82°
2026-04-27 14:20 21.79813 112.52837 9773 ft 294 kts 82°
2026-04-27 14:21 21.80416 112.54968 9768 ft 296 kts 66°
2026-04-27 14:21 21.81373 112.56898 9774 ft 296 kts 64°
2026-04-27 14:21 21.82171 112.58941 9776 ft 296 kts 70°
2026-04-27 14:21 21.82963 112.60984 9776 ft 296 kts 67°
2026-04-27 14:22 21.83857 112.62983 9777 ft 297 kts 65°
2026-04-27 14:22 21.84733 112.65024 9777 ft 297 kts 68°
2026-04-27 14:22 21.85529 112.67040 9777 ft 297 kts 69°
2026-04-27 14:22 21.86358 112.69072 9777 ft 297 kts 67°
2026-04-27 14:23 21.87225 112.71092 9780 ft 297 kts 66°
2026-04-27 14:23 21.88073 112.73119 9778 ft 297 kts 68°
2026-04-27 14:23 21.88899 112.75159 9778 ft 297 kts 68°
2026-04-27 14:23 21.89741 112.77190 9778 ft 297 kts 67°
2026-04-27 14:24 21.90595 112.79215 9775 ft 297 kts 67°
2026-04-27 14:24 21.91435 112.81248 9775 ft 297 kts 68°
2026-04-27 14:24 21.92269 112.83284 9775 ft 297 kts 68°
2026-04-27 14:24 21.93118 112.85317 9775 ft 297 kts 67°
2026-04-27 14:25 21.93964 112.87341 9775 ft 297 kts 68°
2026-04-27 14:25 21.94802 112.89380 9772 ft 297 kts 68°
2026-04-27 14:25 21.95644 112.91417 9775 ft 297 kts 67°
2026-04-27 14:25 21.96494 112.93448 9777 ft 298 kts 67°
2026-04-27 14:26 21.97332 112.95484 9776 ft 297 kts 68°
2026-04-27 14:26 21.98167 112.97520 9775 ft 297 kts 67°
2026-04-27 14:26 21.99021 112.99543 9773 ft 297 kts 67°
2026-04-27 14:26 21.99863 113.01577 9773 ft 297 kts 68°
2026-04-27 14:27 22.00699 113.03613 9773 ft 297 kts 68°
2026-04-27 14:27 22.01539 113.05645 9773 ft 297 kts 67°
2026-04-27 14:27 22.02387 113.07680 9773 ft 297 kts 67°
2026-04-27 14:27 22.03229 113.09713 9773 ft 297 kts 68°
2026-04-27 14:28 22.04068 113.11753 9771 ft 297 kts 67°
2026-04-27 14:28 22.04913 113.13782 9771 ft 297 kts 67°
2026-04-27 14:28 22.05756 113.15817 9771 ft 297 kts 67°
2026-04-27 14:28 22.06593 113.17853 9771 ft 297 kts 67°
2026-04-27 14:29 22.07439 113.19885 9771 ft 297 kts 67°
2026-04-27 14:29 22.08283 113.21917 9771 ft 297 kts 67°
2026-04-27 14:29 22.09122 113.23949 9771 ft 297 kts 67°
2026-04-27 14:29 22.09976 113.25978 9771 ft 297 kts 67°
2026-04-27 14:30 22.10831 113.28009 9768 ft 297 kts 67°
2026-04-27 14:30 22.11807 113.29969 9766 ft 298 kts 58°
2026-04-27 14:30 22.13028 113.31771 9765 ft 298 kts 54°
2026-04-27 14:30 22.14210 113.33603 9764 ft 298 kts 58°
2026-04-27 14:31 22.15326 113.35491 9762 ft 298 kts 58°
2026-04-27 14:31 22.16480 113.37345 9762 ft 298 kts 56°
2026-04-27 14:31 22.17671 113.39173 9762 ft 298 kts 56°
2026-04-27 14:31 22.18834 113.41027 9762 ft 298 kts 57°
2026-04-27 14:32 22.19973 113.42891 9762 ft 298 kts 57°
2026-04-27 14:32 22.21137 113.44740 9773 ft 298 kts 56°
2026-04-27 14:32 22.22314 113.46585 9773 ft 298 kts 56°
2026-04-27 14:32 22.23469 113.48443 9774 ft 298 kts 57°
2026-04-27 14:33 22.24625 113.50305 9774 ft 298 kts 57°
2026-04-27 14:33 22.25795 113.52158 9775 ft 299 kts 56°
2026-04-27 14:33 22.26959 113.54009 9778 ft 299 kts 57°
2026-04-27 14:33 22.28117 113.55875 9777 ft 299 kts 57°
2026-04-27 14:34 22.29268 113.57711 9776 ft 299 kts 57°
2026-04-27 14:34 22.30458 113.59593 9775 ft 299 kts 56°
2026-04-27 14:34 22.31619 113.61421 9775 ft 300 kts 56°
2026-04-27 14:34 22.32803 113.63268 9777 ft 300 kts 56°
2026-04-27 14:35 22.33996 113.65115 9776 ft 300 kts 56°
2026-04-27 14:35 22.35194 113.66960 9776 ft 300 kts 56°
2026-04-27 14:35 22.36392 113.68807 9776 ft 300 kts 56°
2026-04-27 14:35 22.37588 113.70651 9777 ft 300 kts 56°
2026-04-27 14:36 22.38787 113.72498 9778 ft 300 kts 56°
2026-04-27 14:36 22.39984 113.74343 9779 ft 300 kts 56°
2026-04-27 14:36 22.41183 113.76187 9776 ft 300 kts 56°
2026-04-27 14:36 22.42377 113.78036 9778 ft 300 kts 56°
2026-04-27 14:37 22.43570 113.79884 9777 ft 300 kts 55°
2026-04-27 14:37 22.45044 113.81447 9772 ft 299 kts 30°
2026-04-27 14:37 22.46877 113.82507 9774 ft 299 kts 31°
2026-04-27 14:37 22.48563 113.83826 9773 ft 299 kts 38°
2026-04-27 14:38 22.50166 113.85259 9775 ft 299 kts 39°
2026-04-27 14:38 22.51784 113.86676 9783 ft 300 kts 38°
2026-04-27 14:38 22.53415 113.88081 9784 ft 300 kts 38°
2026-04-27 14:38 22.55036 113.89502 9785 ft 300 kts 39°
2026-04-27 14:39 22.56651 113.90928 9782 ft 300 kts 39°
2026-04-27 14:39 22.58278 113.92341 9782 ft 300 kts 38°
2026-04-27 14:39 22.59906 113.93759 9781 ft 300 kts 39°
2026-04-27 14:39 22.61525 113.95184 9783 ft 300 kts 39°
2026-04-27 14:40 22.63149 113.96609 9783 ft 300 kts 39°
2026-04-27 14:40 22.64686 113.98132 9780 ft 300 kts 49°
2026-04-27 14:40 22.65790 114.00028 9777 ft 298 kts 66°
2026-04-27 14:40 22.66572 114.02105 9782 ft 298 kts 70°
2026-04-27 14:41 22.67313 114.04192 9784 ft 298 kts 71°
2026-04-27 14:41 22.68048 114.06291 9787 ft 298 kts 70°
2026-04-27 14:41 22.68806 114.08377 9786 ft 298 kts 69°
2026-04-27 14:41 22.69567 114.10465 9787 ft 298 kts 70°
2026-04-27 14:42 22.70324 114.12552 9788 ft 298 kts 70°
2026-04-27 14:42 22.71081 114.14639 9794 ft 298 kts 70°
2026-04-27 14:42 22.71840 114.16729 9788 ft 298 kts 70°
2026-04-27 14:42 22.72601 114.18819 9789 ft 298 kts 70°
2026-04-27 14:43 22.73359 114.20905 9791 ft 298 kts 70°
2026-04-27 14:43 22.74119 114.22994 9791 ft 298 kts 70°
2026-04-27 14:43 22.74881 114.25085 9792 ft 298 kts 70°
2026-04-27 14:43 22.75643 114.27179 9800 ft 298 kts 69°
2026-04-27 14:44 22.76401 114.29269 9800 ft 298 kts 70°
2026-04-27 14:44 22.77159 114.31361 9800 ft 298 kts 69°
2026-04-27 14:44 22.77918 114.33452 9801 ft 298 kts 70°
2026-04-27 14:44 22.78673 114.35545 9801 ft 298 kts 70°
2026-04-27 14:45 22.79427 114.37632 9795 ft 298 kts 70°
2026-04-27 14:45 22.80185 114.39723 9798 ft 298 kts 69°
2026-04-27 14:45 22.80933 114.41811 9798 ft 297 kts 70°
2026-04-27 14:45 22.81578 114.43933 9795 ft 296 kts 77°
2026-04-27 14:46 22.81964 114.46124 9795 ft 296 kts 81°
2026-04-27 14:46 22.82319 114.48319 9794 ft 296 kts 81°
2026-04-27 14:46 22.82669 114.50513 9796 ft 296 kts 82°
2026-04-27 14:46 22.83014 114.52712 9797 ft 296 kts 81°
2026-04-27 14:47 22.83244 114.54164 9800 ft 296 kts 81°
2026-04-27 14:47 22.83588 114.56362 9800 ft 296 kts 82°
2026-04-27 14:47 22.83929 114.58559 9801 ft 296 kts 82°
2026-04-27 14:47 22.84184 114.60768 9799 ft 295 kts 86°
2026-04-27 14:48 22.84363 114.62983 9799 ft 295 kts 86°
2026-04-27 14:48 22.84747 114.67410 9804 ft 295 kts 85°
2026-04-27 14:48 22.84960 114.69624 9802 ft 295 kts 85°
2026-04-27 14:49 22.85174 114.71837 9803 ft 295 kts 85°
2026-04-27 14:49 22.85385 114.74051 9803 ft 295 kts 85°
2026-04-27 14:49 22.85596 114.76263 9803 ft 295 kts 85°
2026-04-27 14:49 22.85808 114.78475 9809 ft 295 kts 85°
2026-04-27 14:50 22.86013 114.80689 9809 ft 295 kts 85°
2026-04-27 14:50 22.86226 114.82902 9809 ft 295 kts 85°
2026-04-27 14:50 22.86445 114.85119 9811 ft 295 kts 85°
2026-04-27 14:50 22.86658 114.87327 9810 ft 295 kts 85°
2026-04-27 14:51 22.86862 114.89506 9809 ft 295 kts 85°
2026-04-27 14:51 22.87072 114.91718 9808 ft 295 kts 85°
2026-04-27 14:51 22.87286 114.93930 9808 ft 295 kts 85°
2026-04-27 14:51 22.87496 114.96143 9808 ft 295 kts 85°
2026-04-27 14:52 22.87707 114.98356 9811 ft 295 kts 85°
2026-04-27 14:52 22.87923 115.00573 9813 ft 296 kts 85°
2026-04-27 14:52 22.88135 115.02788 9809 ft 295 kts 85°
2026-04-27 14:52 22.88338 115.05000 9809 ft 295 kts 85°
2026-04-27 14:53 22.88540 115.07214 9807 ft 295 kts 85°
2026-04-27 14:53 22.88744 115.09420 9807 ft 295 kts 85°
2026-04-27 14:53 22.88944 115.11638 9807 ft 295 kts 85°
2026-04-27 14:53 22.89147 115.13851 9807 ft 295 kts 85°
2026-04-27 14:54 22.89349 115.16059 9812 ft 295 kts 85°
2026-04-27 14:54 22.89551 115.18272 9817 ft 295 kts 85°
2026-04-27 14:54 22.89753 115.20485 9818 ft 294 kts 85°
2026-04-27 14:54 22.89956 115.22692 9813 ft 294 kts 85°
2026-04-27 14:55 22.90161 115.24899 9817 ft 294 kts 85°
2026-04-27 14:55 22.90371 115.27099 9819 ft 294 kts 85°
2026-04-27 14:55 22.90580 115.29305 9819 ft 294 kts 85°
2026-04-27 14:55 22.90788 115.31504 9819 ft 294 kts 85°
2026-04-27 14:56 22.90997 115.33708 9817 ft 293 kts 85°
2026-04-27 14:56 22.91206 115.35909 9817 ft 293 kts 85°
2026-04-27 14:56 22.91413 115.38105 9817 ft 293 kts 85°
2026-04-27 14:56 22.91621 115.40304 9819 ft 293 kts 85°
2026-04-27 14:57 22.91830 115.42498 9823 ft 293 kts 85°
2026-04-27 14:57 22.92035 115.44691 9822 ft 293 kts 85°
2026-04-27 14:57 22.92241 115.46885 9822 ft 292 kts 85°
2026-04-27 14:57 22.92448 115.49080 9822 ft 292 kts 85°
2026-04-27 14:58 22.92655 115.51273 9822 ft 292 kts 85°
2026-04-27 14:58 22.92863 115.53465 9822 ft 292 kts 85°
2026-04-27 14:58 22.93071 115.55658 9822 ft 292 kts 85°
2026-04-27 14:58 22.93277 115.57847 9822 ft 292 kts 85°
2026-04-27 14:59 22.93485 115.60044 9822 ft 292 kts 85°
2026-04-27 14:59 22.93696 115.62235 9822 ft 292 kts 85°
2026-04-27 14:59 22.93904 115.64427 9819 ft 292 kts 85°
2026-04-27 14:59 22.94112 115.66591 9819 ft 292 kts 85°
2026-04-27 15:00 22.94324 115.68779 9819 ft 292 kts 85°
2026-04-27 15:00 22.94538 115.70967 9819 ft 292 kts 85°
2026-04-27 15:00 22.94754 115.73159 9820 ft 292 kts 85°
2026-04-27 15:00 22.94966 115.75350 9820 ft 292 kts 85°
2026-04-27 15:01 22.95182 115.77541 9820 ft 292 kts 85°
2026-04-27 15:01 22.95394 115.79729 9820 ft 292 kts 85°
2026-04-27 15:01 22.95607 115.81916 9820 ft 292 kts 85°
2026-04-27 15:01 22.95819 115.84106 9820 ft 291 kts 85°
2026-04-27 15:02 22.96031 115.86291 9820 ft 291 kts 85°
2026-04-27 15:02 22.96245 115.88469 9820 ft 291 kts 85°
2026-04-27 15:02 22.96458 115.90665 9824 ft 291 kts 85°
2026-04-27 15:02 22.96670 115.92849 9824 ft 291 kts 85°
2026-04-27 15:03 22.96943 115.95026 9822 ft 292 kts 79°
2026-04-27 15:03 22.97663 115.97119 9818 ft 293 kts 62°
2026-04-27 15:03 22.98833 115.98892 9818 ft 294 kts 48°
2026-04-27 15:03 23.00202 116.00580 9822 ft 294 kts 53°
2026-04-27 15:04 23.01257 116.02474 9824 ft 294 kts 62°
2026-04-27 15:04 23.02289 116.04389 9822 ft 294 kts 58°
2026-04-27 15:04 23.03431 116.06228 9824 ft 294 kts 56°
2026-04-27 15:04 23.04530 116.08062 9824 ft 294 kts 59°
2026-04-27 15:05 23.05577 116.09972 9821 ft 294 kts 60°
2026-04-27 15:05 23.06649 116.11861 9821 ft 294 kts 58°
2026-04-27 15:05 23.07761 116.13724 9821 ft 294 kts 57°
2026-04-27 15:05 23.08854 116.15605 9824 ft 294 kts 59°
2026-04-27 15:06 23.09924 116.17499 9828 ft 294 kts 59°
2026-04-27 15:06 23.11009 116.19381 9828 ft 294 kts 58°
2026-04-27 15:06 23.12111 116.21259 9829 ft 295 kts 58°
2026-04-27 15:06 23.13195 116.23145 9826 ft 294 kts 59°
2026-04-27 15:07 23.14274 116.25034 9827 ft 295 kts 58°
2026-04-27 15:07 23.15366 116.26920 9824 ft 295 kts 58°
2026-04-27 15:07 23.16458 116.28805 9822 ft 295 kts 58°
2026-04-27 15:07 23.17548 116.30694 9826 ft 295 kts 58°
2026-04-27 15:08 23.18631 116.32580 9824 ft 294 kts 58°
2026-04-27 15:08 23.19718 116.34470 9825 ft 295 kts 58°
2026-04-27 15:08 23.20809 116.36355 9825 ft 295 kts 58°
2026-04-27 15:08 23.21821 116.38285 9824 ft 294 kts 62°
2026-04-27 15:09 23.22871 116.40196 9824 ft 294 kts 58°
2026-04-27 15:09 23.23965 116.42080 9824 ft 294 kts 58°
2026-04-27 15:09 23.25060 116.43959 9825 ft 294 kts 58°
2026-04-27 15:09 23.26162 116.45840 9829 ft 294 kts 58°
2026-04-27 15:10 23.27260 116.47719 9829 ft 294 kts 58°
2026-04-27 15:10 23.28358 116.49600 9830 ft 294 kts 58°
2026-04-27 15:10 23.29458 116.51478 9831 ft 295 kts 58°
2026-04-27 15:10 23.30556 116.53360 9829 ft 294 kts 58°
2026-04-27 15:11 23.31654 116.55234 9833 ft 294 kts 58°
2026-04-27 15:11 23.32754 116.57113 9830 ft 294 kts 58°
2026-04-27 15:11 23.33858 116.58989 9831 ft 295 kts 58°
2026-04-27 15:11 23.34968 116.60867 9831 ft 295 kts 58°
2026-04-27 15:12 23.36078 116.62740 9831 ft 295 kts 58°
2026-04-27 15:12 23.37185 116.64618 9831 ft 295 kts 58°
2026-04-27 15:12 23.38295 116.66499 9830 ft 295 kts 58°
2026-04-27 15:12 23.39401 116.68377 9831 ft 295 kts 58°
2026-04-27 15:13 23.40508 116.70256 9828 ft 295 kts 58°
2026-04-27 15:13 23.41614 116.72137 9827 ft 295 kts 58°
2026-04-27 15:13 23.42719 116.74016 9827 ft 295 kts 58°
2026-04-27 15:13 23.43826 116.75895 9827 ft 295 kts 58°
2026-04-27 15:14 23.44938 116.77774 9830 ft 295 kts 58°
2026-04-27 15:14 23.46046 116.79649 9830 ft 295 kts 58°
2026-04-27 15:14 23.47094 116.81563 9828 ft 294 kts 63°
2026-04-27 15:14 23.48129 116.83483 9826 ft 294 kts 56°
2026-04-27 15:15 23.49511 116.85123 9824 ft 295 kts 42°
2026-04-27 15:15 23.51028 116.86627 9823 ft 294 kts 45°
2026-04-27 15:15 23.52439 116.88241 9826 ft 294 kts 47°
2026-04-27 15:15 23.53887 116.89819 9827 ft 294 kts 44°
2026-04-27 15:16 23.55371 116.91354 9826 ft 294 kts 44°
2026-04-27 15:16 23.56825 116.92921 9826 ft 294 kts 46°
2026-04-27 15:16 23.58261 116.94516 9826 ft 294 kts 46°
2026-04-27 15:16 23.59717 116.96087 9827 ft 294 kts 45°
2026-04-27 15:17 23.61183 116.97644 9830 ft 294 kts 45°
2026-04-27 15:17 23.62634 116.99221 9833 ft 294 kts 46°
2026-04-27 15:17 23.64078 117.00801 9833 ft 294 kts 45°
2026-04-27 15:17 23.65537 117.02370 9833 ft 294 kts 45°
2026-04-27 15:18 23.66995 117.03937 9830 ft 294 kts 45°
2026-04-27 15:18 23.68446 117.05519 9830 ft 295 kts 45°
2026-04-27 15:18 23.69898 117.07098 9831 ft 295 kts 45°
2026-04-27 15:18 23.71355 117.08668 9837 ft 295 kts 45°
2026-04-27 15:19 23.72812 117.10238 9836 ft 294 kts 45°
2026-04-27 15:19 23.74257 117.11815 9837 ft 294 kts 46°
2026-04-27 15:19 23.75708 117.13389 9837 ft 294 kts 45°
2026-04-27 15:19 23.77160 117.14955 9837 ft 294 kts 45°
2026-04-27 15:20 23.78608 117.16527 9837 ft 293 kts 45°
2026-04-27 15:20 23.80056 117.18102 9837 ft 293 kts 45°
2026-04-27 15:20 23.81505 117.19670 9838 ft 294 kts 45°
2026-04-27 15:20 23.82955 117.21242 9838 ft 294 kts 45°
2026-04-27 15:21 23.84384 117.22795 9840 ft 294 kts 46°
2026-04-27 15:21 23.85832 117.24372 9837 ft 294 kts 45°
2026-04-27 15:21 23.87280 117.25942 9833 ft 293 kts 46°
2026-04-27 15:21 23.88718 117.27515 9836 ft 293 kts 45°
2026-04-27 15:22 23.90176 117.29069 9836 ft 293 kts 45°
2026-04-27 15:22 23.91624 117.30635 9837 ft 293 kts 46°
2026-04-27 15:22 23.93056 117.32222 9842 ft 292 kts 46°
2026-04-27 15:22 23.94491 117.33795 9840 ft 293 kts 45°
2026-04-27 15:23 23.95950 117.35348 9845 ft 293 kts 45°
2026-04-27 15:23 23.97400 117.36915 9820 ft 292 kts 45°
2026-04-27 15:23 23.98860 117.38444 9836 ft 291 kts 47°
2026-04-27 15:23 24.00236 117.40069 9842 ft 291 kts 48°
2026-04-27 15:24 24.01661 117.41645 9846 ft 293 kts 45°
2026-04-27 15:24 24.03151 117.43169 9846 ft 293 kts 44°
2026-04-27 15:24 24.04603 117.44735 9850 ft 293 kts 47°
2026-04-27 15:24 24.06023 117.46337 9856 ft 293 kts 47°
2026-04-27 15:25 24.07468 117.47912 9841 ft 294 kts 45°
2026-04-27 15:25 24.08934 117.49475 9847 ft 294 kts 45°
2026-04-27 15:25 24.10383 117.51058 9840 ft 294 kts 46°
2026-04-27 15:25 24.11822 117.52648 9841 ft 294 kts 46°
2026-04-27 15:26 24.13279 117.54228 9841 ft 294 kts 45°
2026-04-27 15:26 24.14736 117.55804 9841 ft 294 kts 46°
2026-04-27 15:26 24.16182 117.57389 9841 ft 295 kts 46°
2026-04-27 15:26 24.17630 117.58976 9842 ft 295 kts 46°
2026-04-27 15:27 24.19086 117.60556 9856 ft 295 kts 46°
2026-04-27 15:27 24.20560 117.62161 9842 ft 295 kts 46°
2026-04-27 15:27 24.22011 117.63753 9842 ft 295 kts 46°
2026-04-27 15:27 24.23464 117.65340 9850 ft 295 kts 46°
2026-04-27 15:28 24.24901 117.66901 9839 ft 295 kts 46°
2026-04-27 15:28 24.26351 117.68489 9839 ft 295 kts 46°
2026-04-27 15:28 24.27802 117.70075 9839 ft 295 kts 46°
2026-04-27 15:28 24.29254 117.71664 9844 ft 295 kts 46°
2026-04-27 15:29 24.30706 117.73249 9838 ft 295 kts 46°
2026-04-27 15:29 24.32163 117.74837 9842 ft 295 kts 46°
2026-04-27 15:29 24.33613 117.76427 9838 ft 295 kts 46°
2026-04-27 15:29 24.35063 117.78017 9836 ft 295 kts 46°
2026-04-27 15:30 24.36521 117.79607 9837 ft 294 kts 46°
2026-04-27 15:30 24.37972 117.81190 9839 ft 294 kts 46°
2026-04-27 15:30 24.39422 117.82780 9839 ft 295 kts 46°
2026-04-27 15:30 24.40401 117.83856 9837 ft 295 kts 46°
2026-04-27 15:31 24.41835 117.85427 9839 ft 295 kts 46°
2026-04-27 15:31 24.43287 117.87014 9843 ft 295 kts 46°
2026-04-27 15:31 24.44739 117.88601 9839 ft 294 kts 46°
2026-04-27 15:31 24.46186 117.90189 9842 ft 294 kts 46°
2026-04-27 15:32 24.47629 117.91782 9844 ft 294 kts 46°
2026-04-27 15:32 24.49064 117.93379 9843 ft 294 kts 46°
2026-04-27 15:32 24.50502 117.94975 9845 ft 294 kts 46°
2026-04-27 15:32 24.51942 117.96574 9841 ft 294 kts 46°
2026-04-27 15:33 24.53381 117.98175 9836 ft 294 kts 46°
2026-04-27 15:33 24.54816 117.99773 9836 ft 294 kts 46°
2026-04-27 15:33 24.56271 118.01392 9845 ft 294 kts 46°
2026-04-27 15:33 24.57708 118.02993 9845 ft 294 kts 46°
2026-04-27 15:34 24.59146 118.04592 9841 ft 294 kts 46°
2026-04-27 15:34 24.60583 118.06190 9847 ft 294 kts 46°
2026-04-27 15:34 24.62019 118.07788 9843 ft 294 kts 46°
2026-04-27 15:34 24.63439 118.09362 9844 ft 294 kts 46°
2026-04-27 15:35 24.64895 118.10979 9853 ft 294 kts 46°
2026-04-27 15:35 24.66330 118.12580 9852 ft 293 kts 46°
2026-04-27 15:35 24.67749 118.14143 9850 ft 293 kts 44°
2026-04-27 15:35 24.69382 118.15540 9849 ft 294 kts 36°
2026-04-27 15:36 24.70928 118.16943 9844 ft 293 kts 46°
2026-04-27 15:36 24.72262 118.18638 9843 ft 292 kts 51°
2026-04-27 15:36 24.73640 118.20284 9840 ft 293 kts 46°
2026-04-27 15:36 24.75079 118.21863 9840 ft 292 kts 46°
2026-04-27 15:37 24.76476 118.23494 9839 ft 292 kts 49°
2026-04-27 15:37 24.77842 118.25154 9841 ft 292 kts 49°
2026-04-27 15:37 24.79238 118.26782 9841 ft 293 kts 47°
2026-04-27 15:37 24.80651 118.28396 9840 ft 293 kts 47°
2026-04-27 15:38 24.82043 118.30036 9841 ft 293 kts 48°
2026-04-27 15:38 24.83426 118.31677 9842 ft 293 kts 48°
2026-04-27 15:38 24.84828 118.33309 9841 ft 293 kts 47°
2026-04-27 15:38 24.86226 118.34933 9842 ft 293 kts 48°
2026-04-27 15:39 24.87623 118.36580 9841 ft 293 kts 48°
2026-04-27 15:39 24.89015 118.38219 9842 ft 293 kts 48°
2026-04-27 15:39 24.90413 118.39849 9842 ft 293 kts 47°
2026-04-27 15:39 24.91811 118.41482 9845 ft 293 kts 48°
2026-04-27 15:40 24.93199 118.43121 9839 ft 293 kts 48°
2026-04-27 15:40 24.94598 118.44758 9837 ft 293 kts 47°
2026-04-27 15:40 24.95994 118.46390 9839 ft 293 kts 47°
2026-04-27 15:40 24.97385 118.48027 9839 ft 293 kts 48°
2026-04-27 15:41 24.98776 118.49665 9842 ft 293 kts 47°
2026-04-27 15:41 25.00173 118.51299 9845 ft 292 kts 47°
2026-04-27 15:41 25.01566 118.52932 9845 ft 293 kts 47°
2026-04-27 15:41 25.02939 118.54547 9845 ft 292 kts 48°
2026-04-27 15:42 25.04327 118.56181 9839 ft 292 kts 48°
2026-04-27 15:42 25.05723 118.57817 9835 ft 292 kts 47°
2026-04-27 15:42 25.07120 118.59442 9840 ft 292 kts 48°
2026-04-27 15:42 25.08497 118.61088 9840 ft 292 kts 48°
2026-04-27 15:43 25.09883 118.62722 9846 ft 292 kts 47°
2026-04-27 15:43 25.11281 118.64352 9847 ft 292 kts 47°
2026-04-27 15:43 25.12678 118.65988 9846 ft 293 kts 47°
2026-04-27 15:43 25.14070 118.67631 9844 ft 293 kts 47°
2026-04-27 15:44 25.15462 118.69277 9843 ft 293 kts 47°
2026-04-27 15:44 25.16856 118.70916 9843 ft 293 kts 47°
2026-04-27 15:44 25.18253 118.72553 9842 ft 293 kts 47°
2026-04-27 15:44 25.19642 118.74193 9842 ft 292 kts 47°
2026-04-27 15:45 25.21035 118.75833 9842 ft 292 kts 47°
2026-04-27 15:45 25.22422 118.77473 9842 ft 292 kts 47°
2026-04-27 15:45 25.23814 118.79109 9843 ft 293 kts 47°
2026-04-27 15:45 25.25209 118.80749 9843 ft 292 kts 47°
2026-04-27 15:46 25.26598 118.82391 9849 ft 292 kts 47°
2026-04-27 15:46 25.27986 118.84028 9849 ft 293 kts 47°
2026-04-27 15:46 25.29379 118.85668 9849 ft 293 kts 47°
2026-04-27 15:46 25.30770 118.87313 9851 ft 293 kts 47°
2026-04-27 15:47 25.32164 118.88956 9847 ft 293 kts 47°
2026-04-27 15:47 25.33557 118.90602 9844 ft 293 kts 47°
2026-04-27 15:47 25.34951 118.92246 9843 ft 293 kts 47°
2026-04-27 15:47 25.36344 118.93890 9844 ft 293 kts 47°
2026-04-27 15:48 25.37734 118.95531 9843 ft 293 kts 47°
2026-04-27 15:48 25.39127 118.97177 9840 ft 293 kts 47°
2026-04-27 15:48 25.40519 118.98823 9840 ft 293 kts 47°
2026-04-27 15:49 25.43301 119.02115 9837 ft 293 kts 47°
2026-04-27 15:49 25.44699 119.03765 9840 ft 293 kts 47°
2026-04-27 15:49 25.46094 119.05410 9841 ft 293 kts 47°
2026-04-27 15:49 25.47484 119.07062 9840 ft 293 kts 48°
2026-04-27 15:50 25.48876 119.08710 9844 ft 293 kts 47°
2026-04-27 15:50 25.50271 119.10352 9844 ft 293 kts 47°
2026-04-27 15:50 25.51662 119.12005 9846 ft 293 kts 48°
2026-04-27 15:50 25.53056 119.13658 9844 ft 293 kts 47°
2026-04-27 15:51 25.54449 119.15301 9840 ft 293 kts 47°
2026-04-27 15:51 25.55837 119.16954 9843 ft 293 kts 47°
2026-04-27 15:51 25.57237 119.18606 9834 ft 293 kts 47°
2026-04-27 15:51 25.58613 119.20264 9841 ft 293 kts 47°
2026-04-27 15:52 25.60022 119.21894 9841 ft 293 kts 46°
2026-04-27 15:52 25.61419 119.23543 9841 ft 293 kts 48°
2026-04-27 15:52 25.62795 119.25209 9832 ft 293 kts 48°
2026-04-27 15:52 25.64190 119.26859 9833 ft 293 kts 47°
2026-04-27 15:53 25.65588 119.28504 9834 ft 293 kts 47°
2026-04-27 15:53 25.66976 119.30156 9833 ft 293 kts 47°
2026-04-27 15:53 25.68368 119.31813 9833 ft 293 kts 47°
2026-04-27 15:53 25.69762 119.33463 9833 ft 293 kts 47°
2026-04-27 15:54 25.71158 119.35112 9840 ft 293 kts 47°
2026-04-27 15:54 25.72599 119.36705 9834 ft 293 kts 40°
2026-04-27 15:54 25.74322 119.37907 9831 ft 293 kts 24°
2026-04-27 15:54 25.76261 119.38573 9826 ft 292 kts 10°
2026-04-27 15:55 25.78254 119.39033 9824 ft 292 kts 14°
2026-04-27 15:55 25.79529 119.39503 9826 ft 292 kts 20°
2026-04-27 15:55 25.82095 119.40502 9826 ft 292 kts 16°
2026-04-27 15:55 25.84041 119.41142 9827 ft 292 kts 16°
2026-04-27 15:56 25.85975 119.41833 9824 ft 292 kts 18°
2026-04-27 15:56 25.87900 119.42558 9829 ft 292 kts 18°
2026-04-27 15:56 25.89836 119.43243 9830 ft 292 kts 16°
2026-04-27 15:56 25.91774 119.43918 9829 ft 292 kts 17°
2026-04-27 15:57 25.93707 119.44626 9834 ft 292 kts 18°
2026-04-27 15:57 25.95640 119.45333 9832 ft 292 kts 17°
2026-04-27 15:57 25.97574 119.46023 9833 ft 292 kts 17°
2026-04-27 15:57 25.99515 119.46715 9836 ft 292 kts 17°
2026-04-27 15:58 26.01451 119.47418 9836 ft 293 kts 17°
2026-04-27 15:58 26.03389 119.48119 9835 ft 293 kts 17°
2026-04-27 15:58 26.05330 119.48816 9834 ft 293 kts 17°
2026-04-27 15:58 26.07278 119.49515 9834 ft 294 kts 17°
2026-04-27 15:59 26.09220 119.50218 9835 ft 294 kts 17°
2026-04-27 15:59 26.11162 119.50921 9836 ft 294 kts 17°
2026-04-27 15:59 26.13110 119.51624 9837 ft 294 kts 17°
2026-04-27 15:59 26.15053 119.52327 9835 ft 294 kts 17°
2026-04-27 16:00 26.17001 119.53023 9835 ft 294 kts 17°
2026-04-27 16:00 26.18289 119.53489 9835 ft 294 kts 17°
2026-04-27 16:00 26.20893 119.54434 9832 ft 294 kts 17°
2026-04-27 16:00 26.22775 119.55319 9826 ft 295 kts 29°
2026-04-27 16:01 26.24375 119.56691 9826 ft 295 kts 45°
2026-04-27 16:01 26.25698 119.58434 9824 ft 295 kts 51°
2026-04-27 16:01 26.27146 119.60095 9822 ft 295 kts 40°
2026-04-27 16:01 26.28835 119.61370 9826 ft 294 kts 29°
2026-04-27 16:02 26.30619 119.62500 9824 ft 295 kts 30°
2026-04-27 16:02 26.32329 119.63701 9825 ft 294 kts 32°
2026-04-27 16:02 26.34057 119.64930 9826 ft 294 kts 31°
2026-04-27 16:02 26.35809 119.66111 9826 ft 294 kts 30°
2026-04-27 16:03 26.37561 119.67293 9829 ft 294 kts 31°
2026-04-27 16:03 26.39297 119.68506 9829 ft 294 kts 32°
2026-04-27 16:03 26.41036 119.69714 9829 ft 294 kts 31°
2026-04-27 16:03 26.42784 119.70903 9829 ft 294 kts 31°
2026-04-27 16:04 26.44530 119.72101 9826 ft 294 kts 31°
2026-04-27 16:04 26.46271 119.73312 9826 ft 295 kts 31°
2026-04-27 16:04 26.48012 119.74518 9836 ft 295 kts 31°
2026-04-27 16:04 26.49764 119.75708 9836 ft 295 kts 31°
2026-04-27 16:05 26.51507 119.76917 9834 ft 295 kts 32°
2026-04-27 16:05 26.53244 119.78127 9834 ft 294 kts 31°
2026-04-27 16:05 26.54997 119.79311 9835 ft 294 kts 31°
2026-04-27 16:05 26.56739 119.80517 9837 ft 295 kts 31°
2026-04-27 16:06 26.58475 119.81735 9830 ft 295 kts 31°
2026-04-27 16:06 26.60223 119.82936 9830 ft 295 kts 30°
2026-04-27 16:06 26.61969 119.84136 9830 ft 295 kts 31°
2026-04-27 16:06 26.63713 119.85339 9830 ft 295 kts 31°
2026-04-27 16:07 26.65456 119.86547 9835 ft 295 kts 31°
2026-04-27 16:07 26.67197 119.87755 9835 ft 295 kts 31°
2026-04-27 16:07 26.68942 119.88958 9834 ft 295 kts 31°
2026-04-27 16:07 26.70688 119.90161 9837 ft 295 kts 31°
2026-04-27 16:08 26.72430 119.91373 9837 ft 295 kts 31°
2026-04-27 16:08 26.74174 119.92583 9839 ft 295 kts 31°
2026-04-27 16:08 26.75923 119.93785 9839 ft 295 kts 31°
2026-04-27 16:08 26.77669 119.94993 9839 ft 295 kts 31°
2026-04-27 16:09 26.79408 119.96209 9839 ft 295 kts 31°
2026-04-27 16:09 26.82906 119.98623 9841 ft 296 kts 31°
2026-04-27 16:09 26.84654 119.99841 9841 ft 295 kts 31°
2026-04-27 16:10 26.88148 120.02262 9845 ft 295 kts 31°
2026-04-27 16:10 26.91636 120.04685 9848 ft 295 kts 31°
2026-04-27 16:11 26.93377 120.05893 9847 ft 296 kts 31°
2026-04-27 16:11 26.96881 120.08324 9848 ft 295 kts 31°
2026-04-27 16:12 27.00367 120.10770 9845 ft 295 kts 31°
2026-04-27 16:12 27.02118 120.11971 9847 ft 295 kts 30°
2026-04-27 16:12 27.05610 120.14400 9849 ft 296 kts 30°
2026-04-27 16:13 27.07341 120.15588 9850 ft 295 kts 31°
2026-04-27 16:13 27.10826 120.18040 9846 ft 296 kts 30°
2026-04-27 16:13 27.12577 120.19253 9847 ft 296 kts 30°
2026-04-27 16:14 27.16069 120.21685 9850 ft 295 kts 31°
2026-04-27 16:14 27.18991 120.23726 9849 ft 295 kts 31°
2026-04-27 16:15 27.22477 120.26158 9849 ft 295 kts 31°
2026-04-27 16:15 27.25961 120.28590 9843 ft 295 kts 31°
2026-04-27 16:16 27.29424 120.31012 9847 ft 295 kts 31°
2026-04-27 16:16 27.32911 120.33448 9846 ft 295 kts 31°
2026-04-27 16:17 27.36393 120.35891 9842 ft 294 kts 30°
2026-04-27 16:17 27.39870 120.38319 9842 ft 294 kts 31°
2026-04-27 16:18 27.43341 120.40733 9834 ft 293 kts 30°
2026-04-27 16:18 27.46791 120.43194 9837 ft 294 kts 31°
2026-04-27 16:19 27.48530 120.44400 9839 ft 294 kts 30°
2026-04-27 16:19 27.50282 120.45591 9836 ft 294 kts 30°
2026-04-27 16:20 27.55477 120.49276 9837 ft 294 kts 30°
2026-04-27 16:20 27.57223 120.50474 9837 ft 294 kts 30°
2026-04-27 16:20 27.60682 120.52935 9832 ft 294 kts 31°
2026-04-27 16:21 27.62419 120.54157 9835 ft 294 kts 30°
2026-04-27 16:21 27.67627 120.57822 9834 ft 294 kts 30°
2026-04-27 16:22 27.69356 120.59049 9834 ft 294 kts 31°
2026-04-27 16:22 27.72819 120.61505 9834 ft 294 kts 30°
2026-04-27 16:22 27.74551 120.62732 9829 ft 294 kts 31°
2026-04-27 16:23 27.76183 120.64126 9825 ft 295 kts 41°
2026-04-27 16:23 27.79140 120.67349 9826 ft 295 kts 43°
2026-04-27 16:23 27.80608 120.68973 9826 ft 296 kts 43°
2026-04-27 16:24 27.82054 120.70580 9830 ft 296 kts 43°
2026-04-27 16:24 27.85005 120.73852 9830 ft 295 kts 43°
2026-04-27 16:25 27.87920 120.77086 9831 ft 296 kts 43°
2026-04-27 16:25 27.90862 120.80340 9831 ft 295 kts 43°
2026-04-27 16:26 27.93797 120.83593 9828 ft 295 kts 43°
2026-04-27 16:26 27.96751 120.86865 9828 ft 295 kts 43°
2026-04-27 16:27 27.99665 120.90096 9830 ft 295 kts 43°
2026-04-27 16:27 28.04078 120.94962 9834 ft 296 kts 43°
2026-04-27 16:28 28.07019 120.98216 9831 ft 296 kts 43°
2026-04-27 16:28 28.09952 121.01485 9831 ft 296 kts 43°
2026-04-27 16:29 28.14353 121.06391 9831 ft 296 kts 43°
2026-04-27 16:30 28.17286 121.09665 9831 ft 296 kts 43°
2026-04-27 16:30 28.20219 121.12938 9831 ft 296 kts 43°
2026-04-27 16:31 28.24612 121.17842 9832 ft 296 kts 43°
2026-04-27 16:31 28.27544 121.21114 9833 ft 295 kts 43°
2026-04-27 16:32 28.30468 121.24380 9829 ft 295 kts 43°
2026-04-27 16:32 28.31948 121.25981 9829 ft 294 kts 39°
2026-04-27 16:33 28.35583 121.27914 9817 ft 289 kts
2026-04-27 16:33 28.37564 121.28307 9822 ft 289 kts
2026-04-27 16:33 28.39548 121.28669 9820 ft 288 kts
2026-04-27 16:33 28.41532 121.29015 9816 ft 288 kts
2026-04-27 16:34 28.43514 121.29348 9821 ft 288 kts
2026-04-27 16:34 28.45500 121.29528 9822 ft 286 kts 358°
2026-04-27 16:34 28.47484 121.29439 9820 ft 285 kts 354°
2026-04-27 16:34 28.49460 121.29323 9819 ft 285 kts 354°
2026-04-27 16:35 28.51436 121.29201 9815 ft 284 kts 354°
2026-04-27 16:35 28.53412 121.29073 9815 ft 284 kts 354°
2026-04-27 16:35 28.57362 121.28821 9821 ft 284 kts 354°
2026-04-27 16:36 28.59337 121.28693 9813 ft 284 kts 354°
2026-04-27 16:36 28.61311 121.28566 9814 ft 285 kts 354°
2026-04-27 16:36 28.63289 121.28435 9814 ft 285 kts 354°
2026-04-27 16:36 28.65256 121.28220 9810 ft 283 kts 347°
2026-04-27 16:37 28.67143 121.27621 9808 ft 281 kts 339°
2026-04-27 16:37 28.69003 121.26935 9810 ft 281 kts 340°
2026-04-27 16:37 28.70829 121.26251 9811 ft 279 kts 339°
2026-04-27 16:37 28.72675 121.25552 9811 ft 279 kts 339°
2026-04-27 16:38 28.74515 121.24854 9810 ft 279 kts 339°
2026-04-27 16:38 28.76358 121.24151 9817 ft 279 kts 339°
2026-04-27 16:38 28.78198 121.23448 9819 ft 279 kts 339°
2026-04-27 16:38 28.80041 121.22756 9814 ft 279 kts 339°
2026-04-27 16:39 28.81895 121.22103 9815 ft 280 kts 344°
2026-04-27 16:39 28.83842 121.21905 9803 ft 284 kts
2026-04-27 16:39 28.85786 121.22323 9800 ft 287 kts 15°
2026-04-27 16:39 28.87640 121.23183 9803 ft 288 kts 20°
2026-04-27 16:40 28.89506 121.24009 9803 ft 287 kts 18°
2026-04-27 16:40 28.91373 121.24828 9802 ft 287 kts 19°
2026-04-27 16:40 28.93233 121.25658 9801 ft 287 kts 19°
2026-04-27 16:40 28.95093 121.26477 9811 ft 286 kts 19°
2026-04-27 16:41 28.96957 121.27285 9804 ft 286 kts 18°
2026-04-27 16:41 28.98812 121.28086 9803 ft 285 kts 19°
2026-04-27 16:41 29.00662 121.28913 9807 ft 285 kts 19°
2026-04-27 16:41 29.02512 121.29736 9808 ft 286 kts 19°
2026-04-27 16:42 29.04368 121.30556 9810 ft 286 kts 19°
2026-04-27 16:42 29.06228 121.31369 9814 ft 286 kts 19°
2026-04-27 16:42 29.08088 121.32182 9806 ft 286 kts 19°
2026-04-27 16:42 29.09948 121.32997 9807 ft 286 kts 19°
2026-04-27 16:43 29.11801 121.33809 9808 ft 286 kts 19°
2026-04-27 16:43 29.13666 121.34626 9806 ft 286 kts 19°
2026-04-27 16:43 29.15524 121.35439 9807 ft 286 kts 19°
2026-04-27 16:43 29.17382 121.36248 9812 ft 286 kts 19°
2026-04-27 16:44 29.19242 121.37059 9807 ft 286 kts 19°
2026-04-27 16:44 29.21107 121.37868 9808 ft 286 kts 19°
2026-04-27 16:44 29.22967 121.38677 9804 ft 286 kts 19°
2026-04-27 16:44 29.24832 121.39475 9799 ft 286 kts 19°
2026-04-27 16:45 29.26691 121.40285 9805 ft 286 kts 19°
2026-04-27 16:45 29.28550 121.41094 9802 ft 286 kts 19°
2026-04-27 16:45 29.30405 121.41900 9805 ft 286 kts 19°
2026-04-27 16:45 29.32263 121.42708 9805 ft 286 kts 19°
2026-04-27 16:46 29.34121 121.43507 9804 ft 285 kts 18°
2026-04-27 16:46 29.36016 121.44016 9800 ft 283 kts
2026-04-27 16:46 29.38004 121.44240 9799 ft 283 kts
2026-04-27 16:46 29.39963 121.44439 9805 ft 284 kts
2026-04-27 16:47 29.41931 121.44623 9802 ft 284 kts
2026-04-27 16:47 29.43903 121.44801 9799 ft 284 kts
2026-04-27 16:47 29.45878 121.44975 9799 ft 285 kts
2026-04-27 16:47 29.47826 121.45149 9800 ft 285 kts
2026-04-27 16:48 29.49802 121.45323 9797 ft 285 kts
2026-04-27 16:48 29.51805 121.45499 9798 ft 285 kts
2026-04-27 16:48 29.53754 121.45670 9794 ft 285 kts
2026-04-27 16:49 29.57706 121.46019 9790 ft 285 kts
2026-04-27 16:49 29.59689 121.46196 9786 ft 285 kts
2026-04-27 16:49 29.61665 121.46399 9778 ft 284 kts
2026-04-27 16:49 29.63635 121.46552 9785 ft 284 kts
2026-04-27 16:50 29.65609 121.46711 9786 ft 285 kts
2026-04-27 16:50 29.67585 121.46888 9787 ft 285 kts
2026-04-27 16:50 29.69564 121.47056 9789 ft 285 kts
2026-04-27 16:50 29.71542 121.47227 9790 ft 285 kts
2026-04-27 16:51 29.73523 121.47396 9790 ft 285 kts
2026-04-27 16:51 29.75503 121.47560 9790 ft 285 kts
2026-04-27 16:51 29.77471 121.47413 9784 ft 283 kts 347°
2026-04-27 16:51 29.79316 121.46664 9778 ft 281 kts 331°
2026-04-27 16:52 29.80934 121.45421 9775 ft 280 kts 321°
2026-04-27 16:52 29.82564 121.44196 9771 ft 281 kts 332°
2026-04-27 16:52 29.84376 121.43340 9773 ft 282 kts 337°
2026-04-27 16:52 29.86177 121.42451 9774 ft 281 kts 333°
2026-04-27 16:53 29.87942 121.41483 9775 ft 281 kts 333°
2026-04-27 16:53 29.89730 121.40564 9774 ft 282 kts 335°
2026-04-27 16:53 29.91539 121.39682 9775 ft 282 kts 335°
2026-04-27 16:53 29.93343 121.38800 9773 ft 282 kts 335°
2026-04-27 16:54 29.95155 121.37934 9776 ft 282 kts 336°
2026-04-27 16:54 29.96972 121.37077 9772 ft 282 kts 339°
2026-04-27 16:54 29.98919 121.36890 9763 ft 286 kts 10°
2026-04-27 16:54 30.00695 121.37911 9765 ft 288 kts 33°
2026-04-27 16:55 30.02428 121.39056 9764 ft 287 kts 23°
2026-04-27 16:55 30.04298 121.39852 9761 ft 287 kts 16°
2026-04-27 16:55 30.06232 121.40391 9759 ft 286 kts
2026-04-27 16:55 30.08212 121.40525 9759 ft 284 kts 356°
2026-04-27 16:56 30.10179 121.40340 9756 ft 284 kts 354°
2026-04-27 16:56 30.12150 121.40195 9755 ft 284 kts 356°
2026-04-27 16:56 30.14124 121.40112 9763 ft 285 kts 356°
2026-04-27 16:56 30.16109 121.40005 9762 ft 285 kts 355°
2026-04-27 16:57 30.18090 121.39866 9757 ft 286 kts 355°
2026-04-27 16:57 30.20081 121.39743 9757 ft 286 kts 356°
2026-04-27 16:57 30.22070 121.39636 9757 ft 286 kts 356°
2026-04-27 16:57 30.24062 121.39516 9758 ft 287 kts 355°
2026-04-27 16:58 30.26052 121.39388 9758 ft 287 kts 355°
2026-04-27 16:58 30.28045 121.39272 9758 ft 287 kts 356°
2026-04-27 16:58 30.30038 121.39157 9759 ft 287 kts 355°
2026-04-27 16:58 30.31357 121.39077 9759 ft 287 kts 355°
2026-04-27 16:59 30.33352 121.38952 9759 ft 287 kts 355°
2026-04-27 16:59 30.35343 121.38831 9759 ft 287 kts 355°
2026-04-27 16:59 30.37337 121.38717 9759 ft 287 kts 356°
2026-04-27 16:59 30.39316 121.38599 9761 ft 278 kts 355°
2026-04-27 17:00 30.42446 121.38401 9625 ft 265 kts 355°
2026-04-27 17:00 30.44886 121.38259 9283 ft 266 kts 355°
2026-04-27 17:00 30.46736 121.38145 9027 ft 266 kts 355°
2026-04-27 17:01 30.48582 121.38033 8717 ft 266 kts 356°
2026-04-27 17:01 30.50414 121.37928 8335 ft 262 kts 356°
2026-04-27 17:01 30.52225 121.37815 8001 ft 258 kts 356°
2026-04-27 17:01 30.54027 121.37702 7758 ft 260 kts 356°
2026-04-27 17:02 30.55836 121.37600 7517 ft 260 kts 356°
2026-04-27 17:02 30.57634 121.37493 7276 ft 258 kts 356°
2026-04-27 17:02 30.59426 121.37378 7036 ft 257 kts 356°
2026-04-27 17:02 30.61207 121.37269 6797 ft 256 kts 356°
2026-04-27 17:03 30.62983 121.37167 6566 ft 255 kts 356°
2026-04-27 17:03 30.64741 121.37062 6325 ft 250 kts 356°
2026-04-27 17:03 30.66457 121.36955 6083 ft 245 kts 356°
2026-04-27 17:03 30.68126 121.36884 5831 ft 231 kts 358°
2026-04-27 17:04 30.69730 121.36780 5584 ft 237 kts 355°
2026-04-27 17:04 30.71456 121.36624 5338 ft 256 kts 356°
2026-04-27 17:04 30.73257 121.36536 5100 ft 258 kts 358°
2026-04-27 17:04 30.75021 121.36452 4871 ft 249 kts 357°
2026-04-27 17:05 30.76706 121.36335 4850 ft 236 kts 356°
2026-04-27 17:05 30.78315 121.36231 4846 ft 227 kts 357°
2026-04-27 17:05 30.79871 121.36146 4843 ft 222 kts 357°
2026-04-27 17:05 30.81395 121.36050 4838 ft 218 kts 357°
2026-04-27 17:06 30.82900 121.35960 4838 ft 215 kts 357°
2026-04-27 17:06 30.84388 121.35868 4838 ft 214 kts 357°
2026-04-27 17:06 30.85869 121.35778 4823 ft 213 kts 357°
2026-04-27 17:06 30.87373 121.35690 4576 ft 217 kts 356°
2026-04-27 17:07 30.88875 121.35604 4332 ft 215 kts 356°
2026-04-27 17:07 30.90363 121.35511 4085 ft 214 kts 356°
2026-04-27 17:07 30.91826 121.35250 3836 ft 212 kts 346°
2026-04-27 17:07 30.93285 121.35043 3591 ft 211 kts 358°
2026-04-27 17:08 30.94751 121.34991 3352 ft 211 kts 357°
2026-04-27 17:08 30.96219 121.34910 3111 ft 211 kts 357°
2026-04-27 17:08 30.97678 121.34832 2867 ft 210 kts 357°
2026-04-27 17:08 30.99070 121.34756 2627 ft 181 kts 357°
2026-04-27 17:09 31.00230 121.34693 2383 ft 157 kts 357°
2026-04-27 17:09 31.01286 121.34636 2129 ft 153 kts 356°
2026-04-27 17:09 31.02361 121.34577 1915 ft 153 kts 357°
2026-04-27 17:09 31.03356 121.34515 1900 ft 133 kts 356°
2026-04-27 17:10 31.04258 121.34470 1895 ft 121 kts 357°
2026-04-27 17:10 31.05063 121.34427 1896 ft 114 kts 356°
2026-04-27 17:10 31.05871 121.34382 1897 ft 117 kts 356°
2026-04-27 17:10 31.06682 121.34337 1897 ft 117 kts 355°
2026-04-27 17:11 31.07493 121.34292 1898 ft 117 kts 356°
2026-04-27 17:11 31.09117 121.34204 1780 ft 118 kts 356°
2026-04-27 17:11 31.09939 121.34160 1631 ft 118 kts 355°
2026-04-27 17:12 31.11557 121.34075 1329 ft 114 kts 356°
2026-04-27 17:12 31.12346 121.34051 1219 ft 113 kts 355°
2026-04-27 17:12 31.13130 121.34009 1092 ft 113 kts 354°
2026-04-27 17:13 31.13920 121.33955 952 ft 114 kts 354°
2026-04-27 17:13 31.14698 121.33909 792 ft 110 kts 356°
2026-04-27 17:13 31.15466 121.33864 633 ft 112 kts 355°
2026-04-27 17:13 31.16276 121.33804 455 ft 119 kts 358°
2026-04-27 17:14 31.17109 121.33777 301 ft 120 kts 357°
2026-04-27 17:14 31.17948 121.33735 137 ft 121 kts 355°
2026-04-27 17:14 31.18774 121.33684 11 ft 104 kts 357°
2026-04-27 17:14 31.19226 121.33660 14 ft 51 kts 358°
2026-04-27 17:15 31.19559 121.33642 15 ft 45 kts 357°
2026-04-27 17:15 31.19842 121.33629 13 ft 31 kts
2026-04-27 17:15 31.19921 121.33747 12 ft 19 kts 124°
2026-04-27 17:15 31.19896 121.33854 13 ft 12 kts 58°
2026-04-27 17:16 31.19955 121.33873 13 ft 6 kts 357°
2026-04-27 17:16 31.20012 121.33870 13 ft 10 kts 357°
2026-04-27 17:16 31.20089 121.33866 13 ft 12 kts 357°
2026-04-27 17:16 31.20181 121.33861 13 ft 14 kts 358°
2026-04-27 17:17 31.20288 121.33855 13 ft 16 kts 357°
2026-04-27 17:17 31.20410 121.33849 13 ft 17 kts 357°
2026-04-27 17:17 31.20498 121.33856 13 ft 7 kts 44°
2026-04-27 17:18 31.20531 121.33987 13 ft 12 kts
2026-04-27 17:18 31.20589 121.33975 13 ft 8 kts 319°
2026-04-27 17:18 31.20592 121.33944 13 ft 2 kts 267°
2026-04-27 17:18 31.20591 121.33936 13 ft 0 kts 268°